Location: American Medical Response
(33.3472°N, 96.5511°W)
Time: 09:28:08
(UTC+00:00)

H-2A R/B - Pass Details

Date: 10 July 2022
Orbit: 577 x 651 km, 98.5° (Epoch: 07 August)

Event Time Altitude Azimuth Distance (km) Brightness Sun altitude
Rises 03:22:50 0° 360° (N) 2,962 6.2 -18.5°
Reaches altitude 10° 03:25:15 10° 349° (N) 2,055 5.5 -18.9°
Maximum altitude 03:29:08 30° 289° (WNW) 1,175 4.1 -19.4°
Drops below altitude 10° 03:33:01 10° 229° (SW) 2,051 4.7 -20.0°
Sets 03:35:26 0° 218° (SW) 2,955 5.5 -20.4°
